Time,TemperatureF,DewpointF,PressureIn,WindDirection,WindDirectionDegrees,WindSpeedMPH,WindSpeedGustMPH,Humidity,HourlyPrecipIn,Conditions,Clouds,dailyrainin,SolarRadiationWatts/m^2,SoftwareType,DateUTC
2013-03-24 00:02:00,45.0,7.0,-100.00,WNW,282,2.0,8.0,21,0.00,,,0.00,0.000000,,2013-03-24 07:02:00,
2013-03-24 00:12:00,45.0,7.0,-100.00,WNW,282,2.0,8.0,21,0.00,,,0.00,0.000000,,2013-03-24 07:12:00,
2013-03-24 00:22:00,45.0,7.0,-100.00,WNW,282,2.0,8.0,21,0.00,,,0.00,0.000000,,2013-03-24 07:22:00,
2013-03-24 00:52:00,45.0,8.0,-100.00,South,189,6.0,10.0,22,0.00,,,0.00,0.000000,,2013-03-24 07:52:00,
2013-03-24 01:02:00,45.0,8.0,-100.00,South,189,6.0,10.0,22,0.00,,,0.00,0.000000,,2013-03-24 08:02:00,
2013-03-24 01:12:00,45.0,8.0,-100.00,South,189,6.0,10.0,22,0.00,,,0.00,0.000000,,2013-03-24 08:12:00,
2013-03-24 01:22:00,45.0,8.0,-100.00,South,189,6.0,10.0,22,0.00,,,0.00,0.000000,,2013-03-24 08:22:00,
2013-03-24 01:31:00,45.0,8.0,-100.00,South,189,6.0,10.0,22,0.00,,,0.00,0.000000,,2013-03-24 08:31:00,
2013-03-24 01:32:00,44.0,8.0,-100.00,SW,224,3.0,10.0,22,0.00,,,0.00,0.000000,,2013-03-24 08:32:00,
2013-03-24 01:52:00,44.0,8.0,-100.00,SW,224,3.0,10.0,22,0.00,,,0.00,0.000000,,2013-03-24 08:52:00,
2013-03-24 02:02:00,44.0,8.0,-100.00,SW,224,3.0,10.0,22,0.00,,,0.00,0.000000,,2013-03-24 09:02:00,
2013-03-24 02:12:00,44.0,8.0,-100.00,SW,224,3.0,10.0,22,0.00,,,0.00,0.000000,,2013-03-24 09:12:00,
2013-03-24 02:22:00,44.0,8.0,-100.00,SW,224,3.0,10.0,22,0.00,,,0.00,0.000000,,2013-03-24 09:22:00,
2013-03-24 02:32:00,43.0,5.0,-100.00,WSW,244,6.0,7.0,20,0.00,,,0.00,0.000000,,2013-03-24 09:32:00,
2013-03-24 02:52:00,43.0,5.0,-100.00,WSW,244,6.0,7.0,20,0.00,,,0.00,0.000000,,2013-03-24 09:52:00,
2013-03-24 03:02:00,43.0,5.0,-100.00,WSW,244,6.0,7.0,20,0.00,,,0.00,0.000000,,2013-03-24 10:02:00,
2013-03-24 03:12:00,43.0,5.0,-100.00,WSW,244,6.0,7.0,20,0.00,,,0.00,0.000000,,2013-03-24 10:12:00,
2013-03-24 03:22:00,43.0,5.0,-100.00,WSW,244,6.0,7.0,20,0.00,,,0.00,0.000000,,2013-03-24 10:22:00,
2013-03-24 03:32:00,42.0,5.0,-100.00,SW,234,5.0,8.0,21,0.00,,,0.00,0.000000,,2013-03-24 10:32:00,
2013-03-24 03:52:00,42.0,5.0,-100.00,SW,234,5.0,8.0,21,0.00,,,0.00,0.000000,,2013-03-24 10:52:00,
2013-03-24 04:02:00,42.0,5.0,-100.00,SW,234,5.0,8.0,21,0.00,,,0.00,0.000000,,2013-03-24 11:02:00,
2013-03-24 04:12:00,42.0,5.0,-100.00,SW,234,5.0,8.0,21,0.00,,,0.00,0.000000,,2013-03-24 11:12:00,
2013-03-24 04:22:00,42.0,5.0,-100.00,SW,234,5.0,8.0,21,0.00,,,0.00,0.000000,,2013-03-24 11:22:00,
2013-03-24 04:32:00,42.0,4.0,-100.00,WSW,249,6.0,9.0,20,0.00,,,0.00,0.000000,,2013-03-24 11:32:00,
2013-03-24 04:52:00,42.0,4.0,-100.00,WSW,249,6.0,9.0,20,0.00,,,0.00,0.000000,,2013-03-24 11:52:00,
2013-03-24 05:02:00,42.0,4.0,-100.00,WSW,249,6.0,9.0,20,0.00,,,0.00,0.000000,,2013-03-24 12:02:00,
2013-03-24 05:12:00,42.0,4.0,-100.00,WSW,249,6.0,9.0,20,0.00,,,0.00,0.000000,,2013-03-24 12:12:00,
2013-03-24 05:22:00,42.0,4.0,-100.00,WSW,249,6.0,9.0,20,0.00,,,0.00,0.000000,,2013-03-24 12:22:00,
2013-03-24 05:52:00,42.0,0.0,-100.00,WSW,244,6.0,9.0,17,0.00,,,0.00,0.000000,,2013-03-24 12:52:00,
2013-03-24 06:02:00,42.0,0.0,-100.00,WSW,244,6.0,9.0,17,0.00,,,0.00,0.000000,,2013-03-24 13:02:00,
2013-03-24 06:12:00,42.0,0.0,-100.00,WSW,244,6.0,9.0,17,0.00,,,0.00,0.000000,,2013-03-24 13:12:00,
2013-03-24 06:52:00,43.0,0.0,-100.00,WSW,245,6.0,9.0,16,0.00,,,0.00,0.000000,,2013-03-24 13:52:00,
2013-03-24 07:02:00,43.0,0.0,-100.00,WSW,245,6.0,9.0,16,0.00,,,0.00,0.000000,,2013-03-24 14:02:00,
2013-03-24 07:52:00,44.0,-2.0,-100.00,WSW,255,1.0,8.0,14,0.00,,,0.00,20.000000,,2013-03-24 14:52:00,
2013-03-24 08:02:00,44.0,-2.0,-100.00,WSW,255,1.0,8.0,14,0.00,,,0.00,20.000000,,2013-03-24 15:02:00,
2013-03-24 08:53:00,50.0,-7.0,-100.00,NNE,32,0.0,3.0,9,0.00,,,0.00,151.000000,,2013-03-24 15:53:00,
2013-03-24 09:02:00,50.0,-7.0,-100.00,NNE,32,0.0,3.0,9,0.00,,,0.00,151.000000,,2013-03-24 16:02:00,
2013-03-24 09:52:00,54.0,-4.0,-100.00,SE,134,3.0,7.0,9,0.00,,,0.00,272.000000,,2013-03-24 16:52:00,
2013-03-24 10:02:00,54.0,-4.0,-100.00,SE,134,3.0,7.0,9,0.00,,,0.00,272.000000,,2013-03-24 17:02:00,
2013-03-24 10:32:00,55.0,-3.0,-100.00,ESE,108,5.0,11.0,9,0.00,,,0.00,698.000000,,2013-03-24 17:32:00,
2013-03-24 10:53:00,55.0,-3.0,-100.00,ESE,108,5.0,11.0,9,0.00,,,0.00,698.000000,,2013-03-24 17:53:00,
2013-03-24 11:02:00,55.0,-3.0,-100.00,ESE,108,5.0,11.0,9,0.00,,,0.00,698.000000,,2013-03-24 18:02:00,
2013-03-24 11:12:00,55.0,-3.0,-100.00,ESE,108,5.0,11.0,9,0.00,,,0.00,698.000000,,2013-03-24 18:12:00,
2013-03-24 11:22:00,55.0,-3.0,-100.00,ESE,108,5.0,11.0,9,0.00,,,0.00,698.000000,,2013-03-24 18:22:00,
2013-03-24 11:52:00,57.0,-4.0,-100.00,SE,130,6.0,11.0,8,0.00,,,0.00,881.000000,,2013-03-24 18:52:00,
2013-03-24 12:02:00,57.0,-4.0,-100.00,SE,130,6.0,11.0,8,0.00,,,0.00,881.000000,,2013-03-24 19:02:00,
2013-03-24 12:12:00,57.0,-4.0,-100.00,SE,130,6.0,11.0,8,0.00,,,0.00,881.000000,,2013-03-24 19:12:00,
2013-03-24 12:22:00,57.0,-4.0,-100.00,SE,130,6.0,11.0,8,0.00,,,0.00,881.000000,,2013-03-24 19:22:00,
2013-03-24 12:31:00,57.0,-4.0,-100.00,SE,130,6.0,11.0,8,0.00,,,0.00,881.000000,,2013-03-24 19:31:00,
2013-03-24 12:32:00,57.0,-4.0,-100.00,SE,129,7.0,15.0,8,0.00,,,0.00,1010.000000,,2013-03-24 19:32:00,
2013-03-24 12:53:00,57.0,-4.0,-100.00,SE,129,7.0,15.0,8,0.00,,,0.00,1010.000000,,2013-03-24 19:53:00,
2013-03-24 13:02:00,57.0,-4.0,-100.00,SE,129,7.0,15.0,8,0.00,,,0.00,1010.000000,,2013-03-24 20:02:00,
2013-03-24 13:12:00,57.0,-4.0,-100.00,SE,129,7.0,15.0,8,0.00,,,0.00,1010.000000,,2013-03-24 20:12:00,
2013-03-24 13:22:00,57.0,-4.0,-100.00,SE,129,7.0,15.0,8,0.00,,,0.00,1010.000000,,2013-03-24 20:22:00,
2013-03-24 13:32:00,59.0,-5.0,-100.00,SE,146,8.0,15.0,7,0.00,,,0.00,1050.000000,,2013-03-24 20:32:00,
2013-03-24 13:53:00,59.0,-5.0,-100.00,SE,146,8.0,15.0,7,0.00,,,0.00,1050.000000,,2013-03-24 20:53:00,
2013-03-24 14:02:00,59.0,-5.0,-100.00,SE,146,8.0,15.0,7,0.00,,,0.00,1050.000000,,2013-03-24 21:02:00,
2013-03-24 14:11:00,59.0,-5.0,-100.00,SE,146,8.0,15.0,7,0.00,,,0.00,1050.000000,,2013-03-24 21:11:00,
2013-03-24 14:22:00,59.0,-5.0,-100.00,SE,146,8.0,15.0,7,0.00,,,0.00,1050.000000,,2013-03-24 21:22:00,
2013-03-24 14:32:00,59.0,-2.0,-100.00,SE,142,6.0,14.0,8,0.00,,,0.00,1010.000000,,2013-03-24 21:32:00,
2013-03-24 14:53:00,59.0,-2.0,-100.00,SE,142,6.0,14.0,8,0.00,,,0.00,1010.000000,,2013-03-24 21:53:00,
2013-03-24 15:02:00,59.0,-2.0,-100.00,SE,142,6.0,14.0,8,0.00,,,0.00,1010.000000,,2013-03-24 22:02:00,
2013-03-24 15:12:00,59.0,-2.0,-100.00,SE,142,6.0,14.0,8,0.00,,,0.00,1010.000000,,2013-03-24 22:12:00,
2013-03-24 15:22:00,59.0,-2.0,-100.00,SE,142,6.0,14.0,8,0.00,,,0.00,1010.000000,,2013-03-24 22:22:00,
2013-03-24 15:32:00,62.0,0.0,-100.00,SSE,167,6.0,14.0,8,0.00,,,0.00,895.000000,,2013-03-24 22:32:00,
2013-03-24 15:52:00,62.0,0.0,-100.00,SSE,167,6.0,14.0,8,0.00,,,0.00,895.000000,,2013-03-24 22:52:00,
2013-03-24 16:02:00,62.0,0.0,-100.00,SSE,167,6.0,14.0,8,0.00,,,0.00,895.000000,,2013-03-24 23:02:00,
2013-03-24 16:12:00,62.0,0.0,-100.00,SSE,167,6.0,14.0,8,0.00,,,0.00,895.000000,,2013-03-24 23:12:00,
2013-03-24 16:22:00,62.0,0.0,-100.00,SSE,167,6.0,14.0,8,0.00,,,0.00,895.000000,,2013-03-24 23:22:00,
2013-03-24 16:32:00,60.0,-1.0,-100.00,SSE,157,7.0,12.0,8,0.00,,,0.00,709.000000,,2013-03-24 23:32:00,
2013-03-24 16:52:00,60.0,-1.0,-100.00,SSE,157,7.0,12.0,8,0.00,,,0.00,709.000000,,2013-03-24 23:52:00,
2013-03-24 17:02:00,60.0,-1.0,-100.00,SSE,157,7.0,12.0,8,0.00,,,0.00,709.000000,,2013-03-25 00:02:00,
2013-03-24 17:12:00,60.0,-1.0,-100.00,SSE,157,7.0,12.0,8,0.00,,,0.00,709.000000,,2013-03-25 00:12:00,
2013-03-24 17:22:00,60.0,-1.0,-100.00,SSE,157,7.0,12.0,8,0.00,,,0.00,709.000000,,2013-03-25 00:22:00,
2013-03-24 17:32:00,57.0,-1.0,-100.00,SSE,161,6.0,12.0,9,0.00,,,0.00,357.000000,,2013-03-25 00:32:00,
2013-03-24 17:53:00,57.0,-1.0,-100.00,SSE,161,6.0,12.0,9,0.00,,,0.00,357.000000,,2013-03-25 00:53:00,
2013-03-24 18:12:00,57.0,-1.0,-100.00,SSE,161,6.0,12.0,9,0.00,,,0.00,357.000000,,2013-03-25 01:12:00,
2013-03-24 18:22:00,57.0,-1.0,-100.00,SSE,161,6.0,12.0,9,0.00,,,0.00,357.000000,,2013-03-25 01:22:00,
2013-03-24 18:32:00,55.0,1.0,-100.00,NW,307,3.0,7.0,11,0.00,,,0.00,26.000000,,2013-03-25 01:32:00,
2013-03-24 18:52:00,55.0,1.0,-100.00,NW,307,3.0,7.0,11,0.00,,,0.00,26.000000,,2013-03-25 01:52:00,
2013-03-24 19:02:00,55.0,1.0,-100.00,NW,307,3.0,7.0,11,0.00,,,0.00,26.000000,,2013-03-25 02:02:00,
2013-03-24 19:12:00,55.0,1.0,-100.00,NW,307,3.0,7.0,11,0.00,,,0.00,26.000000,,2013-03-25 02:12:00,
2013-03-24 19:22:00,55.0,1.0,-100.00,NW,307,3.0,7.0,11,0.00,,,0.00,26.000000,,2013-03-25 02:22:00,
2013-03-24 19:32:00,54.0,14.0,-100.00,SW,232,3.0,7.0,20,0.00,,,0.00,7.000000,,2013-03-25 02:32:00,
2013-03-24 19:52:00,54.0,14.0,-100.00,SW,232,3.0,7.0,20,0.00,,,0.00,7.000000,,2013-03-25 02:52:00,
2013-03-24 20:02:00,54.0,14.0,-100.00,SW,232,3.0,7.0,20,0.00,,,0.00,7.000000,,2013-03-25 03:02:00,
2013-03-24 20:12:00,54.0,14.0,-100.00,SW,232,3.0,7.0,20,0.00,,,0.00,7.000000,,2013-03-25 03:12:00,
2013-03-24 20:22:00,54.0,14.0,-100.00,SW,232,3.0,7.0,20,0.00,,,0.00,7.000000,,2013-03-25 03:22:00,
2013-03-24 20:32:00,50.0,20.0,-100.00,West,265,3.0,9.0,30,0.00,,,0.00,0.000000,,2013-03-25 03:32:00,
2013-03-24 20:53:00,50.0,20.0,-100.00,West,265,3.0,9.0,30,0.00,,,0.00,0.000000,,2013-03-25 03:53:00,
2013-03-24 21:02:00,50.0,20.0,-100.00,West,265,3.0,9.0,30,0.00,,,0.00,0.000000,,2013-03-25 04:02:00,
2013-03-24 21:12:00,50.0,20.0,-100.00,West,265,3.0,9.0,30,0.00,,,0.00,0.000000,,2013-03-25 04:12:00,
2013-03-24 21:22:00,50.0,20.0,-100.00,West,265,3.0,9.0,30,0.00,,,0.00,0.000000,,2013-03-25 04:22:00,
2013-03-24 21:32:00,52.0,18.0,-100.00,West,269,4.0,8.0,26,0.00,,,0.00,0.000000,,2013-03-25 04:32:00,
2013-03-24 21:52:00,52.0,18.0,-100.00,West,269,4.0,8.0,26,0.00,,,0.00,0.000000,,2013-03-25 04:52:00,
2013-03-24 22:02:00,52.0,18.0,-100.00,West,269,4.0,8.0,26,0.00,,,0.00,0.000000,,2013-03-25 05:02:00,
2013-03-24 22:12:00,52.0,18.0,-100.00,West,269,4.0,8.0,26,0.00,,,0.00,0.000000,,2013-03-25 05:12:00,
2013-03-24 22:22:00,52.0,18.0,-100.00,West,269,4.0,8.0,26,0.00,,,0.00,0.000000,,2013-03-25 05:22:00,
2013-03-24 22:32:00,51.0,18.0,-100.00,WSW,244,5.0,9.0,27,0.00,,,0.00,0.000000,,2013-03-25 05:32:00,
2013-03-24 22:52:00,51.0,18.0,-100.00,WSW,244,5.0,9.0,27,0.00,,,0.00,0.000000,,2013-03-25 05:52:00,
2013-03-24 23:02:00,51.0,18.0,-100.00,WSW,244,5.0,9.0,27,0.00,,,0.00,0.000000,,2013-03-25 06:02:00,
2013-03-24 23:12:00,51.0,18.0,-100.00,WSW,244,5.0,9.0,27,0.00,,,0.00,0.000000,,2013-03-25 06:12:00,
2013-03-24 23:22:00,51.0,18.0,-100.00,WSW,244,5.0,9.0,27,0.00,,,0.00,0.000000,,2013-03-25 06:22:00,
2013-03-24 23:52:00,51.0,17.0,-100.00,WSW,243,8.0,10.0,26,0.00,,,0.00,0.000000,,2013-03-25 06:52:00,